Jackson, TN

12:54 PM CST on November 22, 2019 (GMT -0600)
McKellar-Sipes Regional

Weather History for KMKL - September, 2019

Change the Weather History Date:

Thursday, September 5, 2019

  Actual Average Record
Temperature  
Mean Temperature 75 °F 75 °F  
Max Temperature 88 °F 88 °F 105 °F (1954)
Min Temperature 62 °F 63 °F 45 °F (1997)
Degree Days  
Heating Degree Days 0 0  
Month to date heating degree days 0 0  
Since 1 July heating degree days 0 0  
Cooling Degree Days 10 10  
Month to date cooling degree days 64 54  
Year to date cooling degree days 1525 1477  
Growing Degree Days 25 (Base 50)    
Moisture  
Dew Point 65 °F    
Average Humidity 68    
Maximum Humidity 94    
Minimum Humidity 40    
Precipitation  
Precipitation 0.00 in 0.09 in 1.91 in (1948)
Month to date precipitation 0.00 0.45  
Year to date precipitation 46.71 36.32  
Sea Level Pressure  
Sea Level Pressure 30.05 in    
Wind  
Wind Speed 6 mph ()    
Max Wind Speed 16 mph    
Max Gust Speed 23 mph    
Visibility 9.9 miles    
Events      
T = Trace of Precipitation, MM = Missing Value Source: Averaged Metar Reports

Daily Weather History Graph

Daily Weather History Graph

Search for Another Location

Airport or City:

Astronomy

Sep. 05, 2019 Rise Set
Actual Time 6:30 AM CDT 7:17 PM CDT
Civil Twilight 6:04 AM CDT 7:43 PM CDT
Nautical Twilight 5:34 AM CDT 8:13 PM CDT
Astronomical Twilight 5:02 AM CDT 8:45 PM CDT
Moon 1:23 PM CDT (9/5) 11:47 PM CDT (9/5)
Length of Visible Light 13h 38m
Length of Day
12h 46m
Waxing Crescent, 45% of the Moon is Illuminated
Sep 5
Waxing Crescent
Sep 5
First Quarter
Sep 13
Full
Sep 21
Last Quarter
Sep 28
New

Hourly Weather History & Observations

Time (CDT) Temp. Heat Index Dew Point Humidity Pressure Visibility Wind Dir Wind Speed Gust Speed Precip Events Conditions
12:53 AM 75.9 °F - 73.9 °F 94% 30.03 in 9.0 mi NNE 3.5 mph - N/A   Clear
1:53 AM 75.9 °F - 73.0 °F 91% 30.03 in 10.0 mi NE 3.5 mph - N/A   Clear
2:53 AM 73.9 °F - 71.1 °F 91% 30.03 in 10.0 mi NNE 5.8 mph - N/A   Clear
3:53 AM 73.9 °F - 70.0 °F 87% 30.04 in 10.0 mi NNE 9.2 mph - N/A   Mostly Cloudy
4:53 AM 73.0 °F - 68.0 °F 84% 30.05 in 10.0 mi NE 6.9 mph - N/A   Mostly Cloudy
5:53 AM 72.0 °F - 68.0 °F 87% 30.07 in 10.0 mi NNE 4.6 mph - N/A   Overcast
6:53 AM 71.1 °F - 66.9 °F 87% 30.08 in 10.0 mi North 5.8 mph - N/A   Mostly Cloudy
7:53 AM 72.0 °F - 66.9 °F 84% 30.09 in 10.0 mi NNE 4.6 mph - N/A   Overcast
8:53 AM 75.9 °F - 66.0 °F 71% 30.10 in 10.0 mi NNE 5.8 mph - N/A   Partly Cloudy
9:53 AM 80.1 °F 81.9 °F 64.9 °F 60% 30.10 in 10.0 mi Variable 6.9 mph - N/A   Clear
10:53 AM 82.0 °F 83.4 °F 64.0 °F 54% 30.09 in 10.0 mi NNW 12.7 mph - N/A   Clear
11:53 AM 84.0 °F 84.0 °F 60.1 °F 44% 30.09 in 10.0 mi North 9.2 mph - N/A   Clear
12:53 PM 84.9 °F 84.4 °F 59.0 °F 41% 30.08 in 10.0 mi North 10.4 mph - N/A   Clear
1:53 PM 86.0 °F 86.1 °F 61.0 °F 43% 30.06 in 10.0 mi NNW 12.7 mph - N/A   Clear
2:53 PM 88.0 °F 88.7 °F 63.0 °F 43% 30.04 in 10.0 mi North 13.8 mph 23.0 mph N/A   Clear
3:21 PM 87.1 °F 87.0 °F 61.0 °F 41% 30.05 in 9.0 mi North 12.7 mph - N/A   Partly Cloudy
3:53 PM 87.1 °F 86.7 °F 60.1 °F 40% 30.03 in 10.0 mi North 13.8 mph - N/A   Clear
4:53 PM 86.0 °F 86.3 °F 62.1 °F 44% 30.02 in 10.0 mi NNW 12.7 mph - N/A   Clear
5:53 PM 84.0 °F 84.5 °F 62.1 °F 47% 30.02 in 10.0 mi NNW 9.2 mph - N/A   Clear
6:53 PM 79.0 °F - 61.0 °F 54% 30.02 in 10.0 mi NNW 8.1 mph - N/A   Clear
7:53 PM 73.0 °F - 62.1 °F 68% 30.03 in 10.0 mi NNW 4.6 mph - N/A   Clear
8:53 PM 70.0 °F - 62.1 °F 76% 30.04 in 10.0 mi Calm Calm - N/A   Clear
9:53 PM 66.9 °F - 62.1 °F 84% 30.04 in 10.0 mi Calm Calm - N/A   Clear
10:53 PM 64.0 °F - 62.1 °F 93% 30.04 in 10.0 mi Calm Calm - N/A   Clear
11:53 PM 64.0 °F - 62.1 °F 93% 30.02 in 10.0 mi Calm Calm - N/A   Clear